Location: San Antonio
(29.4240°N, 98.4930°W)
Time: 20:49:57
(UTC-05:00)

ISS - All Passes

Search period start: 01 September 2014 00:00
Search period end: 11 September 2014 00:00
Orbit: 414 x 419 km, 51.6° (Epoch: 01 September)

Date Brightness Start Highest point End Pass type
(mag) Time Alt. Az. Time Alt. Az. Time Alt. Az.
01 Sep - 09:30:50 10° SSW 09:33:58 39° SE 09:37:05 10° ENE daylight
01 Sep - 11:08:52 10° WNW 11:10:48 15° NW 11:12:45 10° N daylight
01 Sep - 17:41:03 10° NNW 17:44:04 31° NE 17:47:04 10° ESE daylight
01 Sep - 19:18:34 10° W 19:20:33 15° SW 19:22:32 10° SSW daylight
02 Sep - 08:43:05 10° S 08:45:33 19° SE 08:48:00 10° ENE daylight
02 Sep - 10:19:20 10° W 10:22:08 25° NW 10:24:56 10° NNE daylight
02 Sep - 16:53:03 10° N 16:55:24 18° NE 16:57:45 10° E daylight
02 Sep - 18:29:12 10° WNW 18:32:09 30° SW 18:35:06 10° SSE daylight
03 Sep - 09:30:18 10° WSW 09:33:30 47° NW 09:36:44 10° NNE daylight
03 Sep - 16:05:49 10° NNE 16:06:39 11° NE 16:07:29 10° NE daylight
03 Sep - 17:40:22 10° NW 17:43:40 66° SW 17:46:57 10° SE daylight
04 Sep - 08:41:38 10° SW 08:44:56 79° SE 08:48:15 10° NE daylight
04 Sep - 16:51:50 10° NW 16:55:06 56° NE 16:58:22 10° SE daylight
05 Sep - 07:53:21 10° SSW 07:56:24 35° SE 07:59:28 10° ENE daylight
05 Sep - 09:31:05 10° WNW 09:33:12 16° NW 09:35:20 10° N daylight
05 Sep - 16:03:31 10° NNW 16:06:27 28° NE 16:09:22 10° ESE daylight
05 Sep - 17:40:46 10° W 17:42:58 17° SW 17:45:11 10° SSW daylight
06 Sep - 07:05:38 10° S 07:07:55 17° SE 07:10:12 10° E daylight
06 Sep - 08:41:34 10° WSW 08:44:27 27° NW 08:47:21 10° NNE daylight
06 Sep - 15:15:30 10° N 15:17:41 16° NE 15:19:53 10° E daylight
06 Sep - 16:51:26 10° WNW 16:54:28 33° SW 16:57:30 10° SSE daylight
07 Sep - 07:52:30 10° WSW 07:55:45 54° NW 07:59:01 10° NE daylight
07 Sep - 16:02:35 10° NW 16:05:54 75° SW 16:09:12 10° SE daylight
08 Sep - 07:03:48 10° SW 07:07:06 69° SE 07:10:24 10° NE daylight
08 Sep - 08:43:29 10° NW 08:44:08 10° NNW 08:44:46 10° NNW daylight
08 Sep - 15:14:00 10° NNW 15:17:14 49° NE 15:20:27 10° ESE daylight
09 Sep - 06:15:31 10° SSW 06:18:30 31° SE 06:21:28 10° ENE visible
09 Sep - 07:52:56 10° W 07:55:14 17° NW 07:57:33 10° N daylight
09 Sep - 14:25:38 10° NNW 14:28:28 25° NE 14:31:18 10° E daylight
09 Sep - 16:02:37 10° W 16:05:02 19° SW 16:07:27 10° S daylight
10 Sep - 05:27:53 10° SSE 05:29:55 15° SE 05:31:58 10° E visible
10 Sep - 07:03:26 10° WSW 07:06:25 30° NW 07:09:24 10° NNE daylight
10 Sep - 13:37:37 10° N 13:39:37 15° NE 13:41:36 10° ENE daylight
10 Sep - 15:13:19 10° WNW 15:16:26 38° SW 15:19:33 10° SSE daylight
